Regional Weather Roundup
Issued by NWS

Home | Current Version | Previous Version | Graphics & Text | Print | Product List | Glossary On
Versions: 1 2 3 4 5 6 7 8 9 10 11 12 13 14 15 16 17 18 19 20 21 22 23 24 25 26 27 28 29 30 31 32 33 34 35 36 37 38 39 40 41 42 43 44 45 46 47 48 49 50
869
ASUS45 KBOU 251907
RWRCO

WEATHER ROUNDUP FOR COLORADO
NATIONAL WEATHER SERVICE DENVER/BOULDER CO
100 PM MDT THU MAY 25 2017

NOTE: "FAIR" INDICATES FEW OR NO CLOUDS BELOW 12000 FEET WITH NO
SIGNIFICANT WEATHER AND/OR OBSTRUCTIONS TO VISIBILITY.

COZ001>005-013-030-031-252000-
...NORTHWEST COLORADO...

CITY           SKY/WX    TMP DP  RH WIND       PRES   REMARKS
CRAIG          FAIR      61  41  47 CALM      29.72F
HAYDEN         FAIR      57  39  51 NW6       29.73F
MEEKER         FAIR      62  42  47 SW8       29.73R
RABBIT EARS PA MOCLDY    37  36  93 SW6       29.91F THUNDER
STEAMBOAT SPGS FAIR      59  42  53 E12       29.73F
WALDEN           N/A     57  36  44 SW24G31   29.79F
$$

COZ006>008-011-252000-
...WEST CENTRAL VALLEYS...

CITY           SKY/WX    TMP DP  RH WIND       PRES   REMARKS
GRAND JUNCTION FAIR      78  29  16 W16G28    29.61R
MONTROSE       FAIR      76  21  12 W20G31    29.68F
EAGLE          PTSUNNY   63  34  34 SW17G24   29.75R
RIFLE          FAIR      77  25  14 W18G30    29.64F
DELTA          FAIR      79  22  12 W25G33    29.65R
NUCLA          FAIR      77  19  11 SW17G35   29.73F
$$

COZ017>023-064>068-252000-
...SOUTHWEST COLORADO...

CITY           SKY/WX    TMP DP  RH WIND       PRES   REMARKS
DURANGO        FAIR      76  17  11 SW18G35   29.80F
CORTEZ         FAIR      79  22  12 W17G31    29.76F
PAGOSA SPRINGS NOT AVBL
TELLURIDE      FAIR      63  19  18 SW10G22   29.95R
WOLF CREEK PAS FAIR      43  18  36 SW21G31   30.14S
$$

COZ009-010-012-014-032>034-037-058>063-252000-
...CENTRAL COLORADO...

CITY           SKY/WX    TMP DP  RH WIND       PRES   REMARKS
ASPEN          PTSUNNY   58  31  35 N16G30    29.77R
BUENA VISTA    FAIR      70  11  10 SW22G37   29.75F
COPPER MTN     FAIR      48  14  25 W22G39    29.99R
BERTHOUD PASS  FAIR      36  27  69 NW15      30.00R
COTTONWOOD PAS FAIR      61   1   9 SW37G53   29.82F
GUNNISON       FAIR      68  21  16 W18G39    29.78F
KREMMLING      CLOUDY    63  39  42 NW3       29.77S
LEADVILLE      CLOUDY    55  13  18 W15G21    29.88S
MONARCH PASS   FAIR      46  14  27 W40G60    30.12F
SALIDA         FAIR      74  12   9 W18G32    29.82F
SUNLIGHT       PTSUNNY   46  28  49 SW20G36   29.95S THUNDER
WILKERSON PASS FAIR      52  19  28 SW14G36   29.97S
$$

COZ069>075-252000-
...SAN LUIS VALLEY/SANGRE DE CRISTO MOUNTAINS...

CITY           SKY/WX    TMP DP  RH WIND       PRES   REMARKS
ALAMOSA        FAIR      74  15  10 W24G35    29.82F
DEL NORTE      FAIR      70  20  15 SW22G36   29.84S
LA VETA PASS   FAIR      59  19  21 MISG      30.07S
SAGUACHE       FAIR      72  16  12 W30G40    29.80S
$$

COZ035-036-038>040-252000-
...NORTHERN COLORADO FRONT RANGE...

CITY           SKY/WX    TMP DP  RH WIND       PRES   REMARKS
DENVER INTL AP PTSUNNY   75  42  30 NE15      29.58F
DMNS CITY PARK   N/A     72  35  26 NE20G26   29.58S
AURORA         PTSUNNY   74  42  31 NE17      29.59F
FRONT RANGE AP PTSUNNY   73  48  40 NE18G26   29.60F
ERIE MUNI ARPT PTSUNNY   69  44  41 N9        29.60R
BOULDER MUN AP LGT RAIN  63  46  55 N5        29.59S
CENTENNIAL     PTSUNNY   74  37  26 NE12      29.59F
BROOMFIELD     PTSUNNY   72  43  35 N17       29.62
FORT COLLINS   LGT RAIN  64  49  57 NE8       29.60F
LONGMONT       FAIR      66  42  41 N12       29.59F
$$

COZ041-046-047-076>085-087-088-252000-
...PIKES PEAK/PALMER DIVIDE AND SOUTHERN FOOTHILLS...

CITY           SKY/WX    TMP DP  RH WIND       PRES   REMARKS
COLO. SPRINGS  FAIR      79  25  13 SW26G35   29.64F
A. F. ACADEMY  FAIR      76  21  12 W15G29    29.64F
SCHRIEVER AFB  FAIR      78  27  15 SW25G35   29.64F
CHEYENNE MTN   PTSUNNY   72  21  14 S12       29.63S
ELLICOTT       FAIR     N/A N/A N/A W23G37    29.63F
FALCON         FAIR      77  21  12 W23G32    29.69F
FORT CARSON    FAIR      79  24  13 S13G26    29.61F
LIMON          FAIR      77  29  17 W8        29.58F
MONUMENT HILL  FAIR      73  28  19 W25G33    29.69F
CANON CITY     NOT AVBL
WALSENBURG     FAIR      81  28  15 W30G39    29.67F
TRINIDAD       FAIR      82  23  11 W17G30    29.69F
$$

COZ042>045-048>051-090-091-252000-
...NORTHEAST COLORADO...

CITY           SKY/WX    TMP DP  RH WIND       PRES   REMARKS
GREELEY ARPT   FAIR      69  49  48 N13       29.59S
AKRON          FAIR      76  47  35 CALM      29.59R
BURLINGTON     FAIR      82  55  39 E5        29.56F
WRAY           FAIR      81  45  28 MISG      29.53F
YUMA           FAIR      75  48  38 E3        29.56S
STERLING       CLOUDY    70  50  49 NW18      29.61R THUNDER
HOLYOKE        NOT AVBL
FORT MORGAN    FAIR      61  49  65 NE15      29.58F
$$

COZ086-089-092>099-252000-
...SOUTHEAST COLORADO...

CITY           SKY/WX    TMP DP  RH WIND       PRES   REMARKS
PUEBLO         FAIR      83  33  16 W21G26    29.57S
LA JUNTA       FAIR      90  32  12 SW22G35   29.54F
LAMAR          FAIR      90  42  18 VRB5      29.49F
SPRINGFIELD      N/A     88  32  13 W14G25    29.57F
$$




USA.gov is the U.S. government's official web portal to all federal, state and local government web resources and services.